Regional Weather Roundup
Issued by NWS Jackson, KY

Home | Current Version | Previous Version | Graphics & Text | Print | Product List | Glossary On
Versions: 1 2 3 4 5 6 7 8 9 10 11 12 13 14 15 16 17 18 19 20 21 22 23 24 25 26 27 28 29 30 31 32 33 34 35 36 37 38 39 40 41 42 43 44 45 46 47
000
ASUS43 KJKL 310710
RWRJKL

EAST KENTUCKY HOURLY WEATHER ROUNDUP
NATIONAL WEATHER SERVICE JACKSON KY
300 AM EDT FRI JUL 31 2015

NOTE: "FAIR" INDICATES FEW OR NO CLOUDS BELOW 12,000 FEET WITH
NO SIGNIFICANT WEATHER AND/OR OBSTRUCTIONS TO VISIBILITY.

* THESE REPORTS ARE NOT UNDER NWS QUALITY CONTROL AND MAY NOT
  REPORT WEATHER SUCH AS PRECIPITATION AND FOG.

KYZ079-080-083-085-087-088-110-112-115-119-120-310800
...EASTERN KENTUCKY...

CITY           SKY/WX    TMP DP  RH WIND       PRES   REMARKS
JACKSON        CLEAR     69  57  65 N5        30.08F
LONDON         CLEAR     66  59  78 CALM      30.08F
SOMERSET*      CLEAR     61  61 100 CALM      30.09F
MONTICELLO*    CLEAR     60  60 100 CALM      30.11F FOG
WILLIAMSBURG*  CLEAR     61  61 100 CALM      30.08F
MIDDLESBORO*   CLEAR     64  63  98 CALM      30.08F
BLACK MTN*       N/A     59  57  94 VRB9        N/A
PIKEVILLE APT* CLEAR     66  63  88 W3        30.08F
BIG SANDY*     SUNNY     66  63  89 CALM      30.07S
MOREHEAD APT*  MOSUNNY   63  61  94 CALM      30.09F
$$

KYZ035-036-041-042-044-050-067-078-099-310800
...CENTRAL KENTUCKY...

CITY           SKY/WX    TMP DP  RH WIND       PRES   REMARKS
MT STERLING*   CLEAR     63  61  94 CALM      30.09S
FLEMING/MASON* CLEAR     64  61  88 W5        30.08S
DANVILLE*      CLEAR     61  61 100 CALM      30.09F
RICHMOND*      CLEAR     64  59  82 CALM      30.08F
LEXINGTON      CLEAR     65  61  87 CALM      30.08F
FRANKFORT      CLEAR     63  61  93 CALM      30.07S
$$

KYZ091>093-OHZ055-061-077-WVZ005-015-034-035-042-310800
...SOUTHERN OHIO/WEST VIRGINIA...

CITY           SKY/WX    TMP DP  RH WIND       PRES   REMARKS
COVINGTON      CLEAR     68  62  83 VRB3      30.07S
COLUMBUS       CLEAR     65  61  87 CALM      30.02F
DAYTON         CLEAR     64  58  80 W7        30.06S
WILMINGTON     CLEAR     61  59  93 SW3       30.06S
HUNTINGTON     CLEAR     63  62  97 CALM      30.04F
CHARLESTON     PTCLDY    64  62  93 CALM      30.04S
PINEVILLE*     FOG       61  61 100 MISG      30.13S VSB 1
BECKLEY        CLEAR     60  57  89 CALM      30.11S
BLUEFIELD      CLEAR     66  56  70 CALM      30.13F
$$

VAZ002-007-008-TNZ017-027-036-066-071-310800
...SOUTHWEST VIRGINIA/EAST TENNESSEE...

CITY           SKY/WX    TMP DP  RH WIND       PRES   REMARKS
WISE*          PTCLDY    64  55  72 CALM      30.14F
ABINGDON*      CLEAR     66  61  85 CALM      30.09S
BRISTOL        PTCLDY    65  61  87 CALM      30.07S
KNOXVILLE      PTCLDY    72  62  71 N7        30.03F
OAK RIDGE      CLEAR     69  63  81 CALM      30.06F
CROSSVILLE     CLEAR     67  58  72 NE5       30.10F
NASHVILLE      PTCLDY    72  62  71 N3        30.07F
$$

...KEY TO REMARKS...
VSB - VISIBILITY IN MILES
WCI - WIND CHILL INDEX
HX  - HEAT INDEX

$$


USA.gov is the U.S. government's official web portal to all federal, state and local government web resources and services.